{"data":{"norad_id":61637,"intl_designator":"2024-191S","name":"STARLINK-32419","alt_names":[],"object_type":"PAYLOAD","status":"ACTIVE","operator":null,"country":"US","launch_date":"2024-10-23","launch_site_code":"AFETR","launch_vehicle":null,"mission":null,"orbit_class":"UNKNOWN","rcs_meters":null,"size_class":null,"mass_kg":null,"dimensions":null,"purposes":["comms"],"wikipedia_slug":null,"has_3d_model":false,"image_url":null,"decayed_at":null,"tle_current":{"epoch":"2026-09-20T08:08:47.081184Z","epoch_age_seconds":205899,"freshness":"STALE","line1":"1 61637U 24191S   26263.33943381 -.00000723  00000+0 -16746-4 0  9994","line2":"2 61637  43.0005 135.3848 0001070 272.0035  88.0694 15.27581040107305","mean_motion":15.2758104,"eccentricity":0.000107,"inclination_deg":43.0005,"raan_deg":135.3848,"arg_perigee_deg":272.0035,"mean_anomaly_deg":88.0694,"bstar":-1.6746e-5,"rev_number":10730,"period_min":94.26668453544,"perigee_km":482.31183532822,"apogee_km":483.78012848635,"semimajor_km":6861.1829819073,"source":"CELESTRAK","updated_at":"2026-09-22T09:00:49.398114Z"}}}